Eilat, Israel

7:41 PM IDT on March 26, 2017 (GMT +0300)
Eilat

Weather History for LLET - March, 2013

Change the Weather History Date:

Sunday, March 31, 2013

  Actual Average Record
Temperature  
Mean Temperature 76 °F -  
Max Temperature 90 °F 84 °F 91 °F (2004)
Min Temperature 63 °F 65 °F 55 °F (2009)
Cooling Degree Days 12    
Growing Degree Days 26 (Base 50)    
Moisture  
Dew Point 38 °F    
Average Humidity 21    
Maximum Humidity 38    
Minimum Humidity 6    
Precipitation  
Precipitation 0.00 in 0.00 in - ()
Sea Level Pressure  
Sea Level Pressure 29.85 in    
Wind  
Wind Speed 4 mph ()    
Max Wind Speed 12 mph    
Max Gust Speed -    
Visibility 9.0 miles    
Events      
Averages and records for this station are not official NWS values.
T = Trace of Precipitation, MM = Missing Value Source: Averaged Metar Reports

Daily Weather History Graph

Daily Weather History Graph

Search for Another Location

Airport or City:

Trip Planner

Search our weather history database for the weather conditions in past years. The results will help you decide how hot, cold, wet, or windy it might be!

Date:

Astronomy

Mar. 31, 2013 Rise Set
Actual Time 6:31 AM IDT 6:58 PM IDT
Civil Twilight 6:07 AM IDT 7:22 PM IDT
Nautical Twilight 5:39 AM IDT 7:50 PM IDT
Astronomical Twilight 5:10 AM IDT 8:18 PM IDT
Moon 11:26 PM IDT (3/31) 9:18 AM IDT (3/31)
Length of Visible Light 13h 14m
Length of Day
12h 27m
Waning Gibbous, 80% of the Moon is Illuminated
Mar 31
Waning Gibbous
Apr 3
Last Quarter
Apr 10
New
Apr 18
First Quarter
Apr 25
Full

Hourly Weather History & Observations

Time (IDT) Temp. Dew Point Humidity Pressure Visibility Wind Dir Wind Speed Gust Speed Precip Events Conditions
3:00 AM 68 °F 38 °F 22% 29.82 in - NE 2.3 mph - -  
5:50 AM 66.2 °F 39.2 °F 37% 29.83 in - Variable 2.3 mph - N/A   Clear
6:50 AM 66.2 °F 39.2 °F 37% 29.83 in - Variable 3.5 mph - N/A   Clear
7:50 AM 68.0 °F 39.2 °F 35% 29.86 in - Variable 2.3 mph - N/A   Clear
8:50 AM 73.4 °F 37.4 °F 27% 29.89 in - NNE 4.6 mph - N/A   Clear
9:00 AM 76 °F 38 °F 15% 29.87 in - ENE 1.2 mph - -  
9:50 AM 78.8 °F 39.2 °F 24% 29.89 in - Variable 3.5 mph - N/A   Clear
10:50 AM 84.2 °F 39.2 °F 20% 29.89 in - Variable 3.5 mph - N/A   Clear
11:50 AM 87.8 °F 39.2 °F 18% 29.86 in - Variable 3.5 mph - N/A   Clear
12:50 PM 87.8 °F 35.6 °F 16% 29.86 in - South 6.9 mph - N/A   Clear
1:50 PM 87.8 °F 37.4 °F 17% 29.86 in - South 6.9 mph - N/A   Clear
2:50 PM 86.0 °F 39.2 °F 19% 29.83 in - South 6.9 mph - N/A   Clear
3:00 PM 89 °F 32 °F 6% 29.82 in - South 4.6 mph - -  
3:50 PM 89.6 °F 30.2 °F 12% 29.83 in - South 10.4 mph - N/A   Clear
4:50 PM 87.8 °F 33.8 °F 15% 29.83 in - SSW 11.5 mph - N/A   Clear
5:50 PM 86.0 °F 33.8 °F 15% 29.83 in - SSW 10.4 mph - N/A   Clear
6:50 PM 84.2 °F 33.8 °F 16% 29.83 in - SW 9.2 mph - N/A   Clear
7:50 PM 84.2 °F 35.6 °F 18% 29.83 in - SSW 5.8 mph - N/A   Clear
8:50 PM 78.8 °F 46.4 °F 32% 29.83 in - Variable 2.3 mph - N/A   Clear
9:00 PM 83 °F 36 °F 10% 29.83 in 9 mi WSW 3.5 mph - -  
9:50 PM 75.2 °F 48.2 °F 38% 29.86 in - Variable 1.2 mph - N/A   Clear